Hourly Data Report for June 12, 2021

GAMETI
NORTHWEST TERRITORIES
Current Station Operator: ECCC - MSC

64°06'42.078" N
117°19'40.086" W
221.00 m
2203359
71165
WYH

Download Data

Hourly Data (June 2021)
Hourly Data Report for June 12, 2021
TIME
LST
Temp Definition
°C
Dew Point Definition
°C
Rel Hum Definition
%
Precip. Amount Definition
mm

Wind Dir Definition
10's deg

Wind Spd Definition
km/h
Visibility Definition
km
Stn Press Definition
kPa
Hmdx Definition


Wind Chill Definition


Weather Definition


00:00 8.2 7.5 96 LegendMM 8 11   97.58     LegendNANA
01:00 8.1 7.6 96 LegendMM 7 13   97.53     LegendNANA
02:00 8.1 7.8 98 LegendMM 7 12   97.50     LegendNANA
03:00 8.1 7.7 98 LegendMM 7 11   97.48     LegendNANA
04:00 8.2 7.8 97 LegendMM 8 12   97.45     LegendNANA
05:00 8.5 8.1 98 LegendMM 8 11   97.44     LegendNANA
06:00 9.1 8.8 98 LegendMM 10 12   97.44     LegendNANA
07:00 9.5 9.1 98 LegendMM 14 6   97.47     LegendNANA
08:00 10.2 9.7 97 LegendMM 15 7   97.49     LegendNANA
09:00 10.7 9.7 93 LegendMM 14 9   97.54     LegendNANA
10:00 11.1 9.8 91 LegendMM 15 9   97.58     LegendNANA
11:00 12.7 9.7 82 LegendMM 15 11   97.61     LegendNANA
12:00 13.2 8.2 72 LegendMM 16 14   97.63     LegendNANA
13:00 13.6 8.4 71 LegendMM 15 13   97.68     LegendNANA
14:00 13.8 9.1 73 LegendMM 15 9   97.71     LegendNANA
15:00 13.9 9.8 76 LegendMM 14 11   97.74     LegendNANA
16:00 15.0 9.6 70 LegendMM 15 13   97.76     LegendNANA
17:00 15.8 9.3 65 LegendMM 15 10   97.77     LegendNANA
18:00 15.5 9.2 66 LegendMM 16 14   97.79     LegendNANA
19:00 14.9 9.2 69 LegendMM 16 11   97.81     LegendNANA
20:00 14.4 10.6 78 LegendMM 16 9   97.85     LegendNANA
21:00 14.6 9.1 70 LegendMM 16 8   97.85     LegendNANA
22:00 13.6 9.2 75 LegendMM 16 9   97.90     LegendNANA
23:00 14.3 9.6 73 LegendMM 15 7   97.93     LegendNANA

Notes on Data Quality.

Legend

  • E = Estimated
  • M = Missing
  • NA = Not Available*
  • [empty] = Indicates an unobserved value
Date modified: